Regional Weather Roundup
Issued by NWS

Home | Current Version | Previous Version | Graphics & Text | Print | Product List | Glossary On
Versions: 1 2 3 4 5 6 7 8 9 10 11 12 13 14 15 16 17 18 19 20 21 22 23 24 25 26 27 28 29 30 31 32 33 34 35 36 37 38 39 40 41 42 43 44 45 46 47 48 49 50
000
ASUS43 KMPX 302310
RWRMN
WEATHER ROUNDUP FOR MINNESOTA
NATIONAL WEATHER SERVICE TWIN CITIES/CHANHASSEN MN
600 PM CDT TUE JUN 30 2015


NOTE: "FAIR" INDICATES FEW OR NO CLOUDS BELOW 12,000 FEET WITH NO
SIGNIFICANT WEATHER AND/OR OBSTRUCTIONS TO VISIBILITY. N/A MEANS
CURRENT SKY AND/OR WEATHER CONDITIONS ARE NOT AVAILABLE.

MNZ060>063-068>070-010000-
   Twin Cities Metro

CITY           SKY/WX    TMP DP  RH WIND       PRES   REMARKS
TWIN CITIES    PTSUNNY   74  54  49 NE9       29.90F
ST PAUL        PTSUNNY   73  55  53 NE9       29.91F
CRYSTAL        PTSUNNY   76  58  53 NE7       29.89F
BLAINE         MOSUNNY   73  57  56 N6        29.91F
LAKEVILLE      PTSUNNY   73  55  53 E8        29.90F
EDEN PRAIRIE   PTSUNNY   76  57  51 NE3       29.89F
SOUTH ST PAUL  PTSUNNY   74  52  47 NE7       29.91S
LAKE ELMO      FAIR      72  55  56 NE3       29.92F
$$
MNZ001>005-007-008-013>017-022>024-027-028-010000-
   Northwest Minnesota

CITY           SKY/WX    TMP DP  RH WIND       PRES   REMARKS
BEMIDJI        PTSUNNY   74  50  43 CALM      29.93S
HALLOCK        MOSUNNY   75  59  57 CALM      29.91S
ROSEAU         CLOUDY    72  59  64 E7        29.93F
WARROAD        PTSUNNY   70  57  64 E5        29.95S
THIEF RVR FALL MOSUNNY   75  55  50 CALM      29.93S
CROOKSTON      MOSUNNY   73  55  53 CALM      29.93S
FOSSTON        MOSUNNY   77  57  50 CALM      29.94S
DETROIT LAKES  PTSUNNY   73  54  49 E3        29.94S
MOORHEAD       CLOUDY    73  63  68 N3        29.93R
PARK RAPIDS    MOSUNNY   76  53  44 VRB5      29.93R
MAHNOMEN       FAIR      73  51  46 CALM      29.93R
$$
MNZ006-009>011-018-025>026-010000-
   North Central Minnesota

CITY           SKY/WX    TMP DP  RH WIND       PRES   REMARKS
BAUDETTE       MOSUNNY   71  55  56 N6        29.93F
FLAG ISLAND    PTSUNNY   68  52  56 SE3       29.93F
INTL FALLS     MOSUNNY   71  51  49 NE7       29.95F
WASKISH        PTSUNNY   73  55  53 CALM      29.93F
BIG FORK       PTSUNNY   72  54  53 CALM      29.94S
LONGVILLE      PTSUNNY   72  55  56 CALM      29.93F
GRAND RAPIDS   MOSUNNY   72  52  49 E3        29.93F
CRANE LAKE     MOSUNNY   66  46  48 CALM      29.96F
ORR            MOSUNNY   72  45  37 CALM      29.92F
COOK           MOSUNNY   72  50  46 N3        29.94F
WALKER         FAIR      72  53  52 E5        29.93S
$$
MNZ012-019>021-037-010000-
   Northeast Minnesota

CITY           SKY/WX    TMP DP  RH WIND       PRES   REMARKS
DULUTH         MOSUNNY   62  45  53 SE10      29.96F
ELY            MOSUNNY   70  43  37 CALM      29.95S
HIBBING        MOSUNNY   72  50  45 VRB5      29.93F
EVELETH        MOSUNNY   72  50  46 CALM      29.95F
DULUTH HARBOR  MOSUNNY   61  54  77 NE10      29.97F
TWO HARBORS    MOSUNNY  N/A N/A N/A E3        29.96S
SILVER BAY     MOSUNNY   59  48  67 SE5       29.96F
GRAND MARAIS     N/A     53  48  83 W5        29.98S
G MARAIS ARPRT SUNNY     57  45  62 S5        29.98S
$$
MNZ029>031-032-039>041-046>048-054>057-064-010000-
   West Central Minnesota

CITY           SKY/WX    TMP DP  RH WIND       PRES   REMARKS
FERGUS FALLS   PTSUNNY   73  57  56 CALM      29.91S
WHEATON        PTSUNNY   70  61  73 CALM      29.93S
MORRIS         MOSUNNY   73  59  60 S5        29.91S
ALEXANDRIA     CLOUDY    74  57  55 SE6       29.93S
ELBOW LAKE     FAIR      72  59  64 CALM      29.92R
WADENA           N/A     73  55  53 NE5       29.92S
GLENWOOD       PTSUNNY   73  59  60 E6        29.93S
APPLETON       MOSUNNY   73  61  64 CALM      29.91S
BENSON         PTSUNNY   73  55  53 CALM      29.92S
ORTONVILLE     PTSUNNY   73  57  56 SE5       29.92R
MADISON        PTSUNNY   72  61  68 SE5       29.92R
WILLMAR        FAIR      75  59  57 CALM      29.93R
$$
MNZ033>034-036-042>043-049>051-058-059-010000-
   Central Minnesota

CITY           SKY/WX    TMP DP  RH WIND       PRES   REMARKS
ST CLOUD       PTSUNNY   74  57  55 E3        29.91S
SAUK CENTRE    FAIR      74  57  54 CALM      29.92S
PAYNESVILLE    PTSUNNY   72  55  56 E6        29.93R
AITKIN         PTSUNNY   75  54  46 NE5       29.91F
PINE RIVER       N/A     73  55  53 NE5       29.96S
BRAINERD       MOSUNNY   76  53  44 N7        29.93F
STAPLES        PTSUNNY   73  54  49 CALM      29.92S
LONG PRAIRIE   FAIR      72  55  56 NE3       29.93S
LITTLE FALLS   PTSUNNY   73  52  46 E7        29.92S
LITCHFIELD     PTSUNNY   75  57  53 NE5       29.92R
BUFFALO        CLOUDY    74  54  49 NE6       29.91F
MAPLE LAKE     CLOUDY    75  60  58 E6        29.92S
$$
MNZ037-044-045-052-053-010000-
   East Central Minnesota

CITY           SKY/WX    TMP DP  RH WIND       PRES   REMARKS
PRINCETON      PTSUNNY   75  57  53 E6        29.92F
MORA           MOSUNNY   70  54  56 NE3       29.94F
CAMBRIDGE      PTSUNNY   73  57  56 CALM      29.91S
RUSH CITY      MOSUNNY   71  56  60 NE7       29.93S
MOOSE LAKE     MOSUNNY   68  55  64 E5        29.93F
HINCKLEY       FAIR      70  55  60 NE5       29.94S
CLOQUET        MOSUNNY   63  46  55 E7        29.95F
MCGREGOR       MOSUNNY   72  54  53 CALM      29.93F
$$
MNZ071>073-080-081-089-090-097-098-010000-
   Southwest Minnesota

CITY           SKY/WX    TMP DP  RH WIND       PRES   REMARKS
MONTEVIDEO     MOSUNNY   73  61  64 SW3       29.92S
GRANITE FALLS  MOSUNNY   72  58  62 CALM      29.93S
CANBY          CLOUDY    70  62  75 SE5       29.92S
MARSHALL       PTSUNNY   70  61  73 SE6         N/A
REDWOOD FALLS  PTSUNNY   74  58  57 S3        29.90F
OLIVIA         PTSUNNY   72  59  64 SW3       29.91R
PIPESTONE      CLOUDY    72  63  73 SE6       29.92S
WINDOM         CLOUDY    72  61  68 CALM      29.92F
WORTHINGTON    CLOUDY    72  61  68 E10       29.91F
JACKSON        CLOUDY    72  61  68 NE3       29.93F
TRACY          CLOUDY    71  64  77 E5        29.92S
SLAYTON        CLOUDY    70  62  75 CALM      29.92F
$$
MNZ065>067-074>077-082>085-091>093-010000-
   South Central Minnesota

CITY           SKY/WX    TMP DP  RH WIND       PRES   REMARKS
MANKATO        PTSUNNY   75  61  60 E6        29.89F
NEW ULM        PTSUNNY   73  59  60 CALM      29.90F
ST JAMES       CLOUDY    73  61  64 CALM      29.91F
FAIRMONT       CLOUDY    72  57  60 CALM      29.91S
GLENCOE        PTSUNNY   75  59  57 E7        29.91S
FARIBAULT      PTSUNNY   75  59  57 NE6       29.91F
OWATONNA       PTSUNNY   73  57  56 NE3       29.90F
WASECA         CLOUDY    72  55  56 NE8       29.92F
ALBERT LEA     CLOUDY    73  59  60 E5        29.90F
$$
MNZ078>079-086>088-094>096-010000-
   Southeast Minnesota

CITY           SKY/WX    TMP DP  RH WIND       PRES   REMARKS
ROCHESTER      MOSUNNY   73  57  57 N9        29.92F
RED WING       MOSUNNY   73  54  49 NE5       29.89F
STANTON        MOSUNNY   73  57  56 NE7       29.90F
DODGE CENTER   PTSUNNY   73  55  53 NE7       29.91F
WINONA         PTSUNNY   73  54  49 N6        29.90S
AUSTIN         PTSUNNY   72  59  64 NE7       29.90F
PRESTON        MOSUNNY   71  57  61 N8        29.92S
$$
ABBREVIATIONS USED IN REMARKS
   TC - TEMPERATURES IN CELSIUS
  WCI - WIND CHILL INDEX
   HX - HEAT INDEX
  VSB - VISIBILITY
$$


USA.gov is the U.S. government's official web portal to all federal, state and local government web resources and services.